Location: Wojcin
(51.5330°N, 20.0030°E)
Time: 10:43:47
(UTC+01:00)

ISS - Visible Passes

Search period start: 19 March 2019 00:00
Search period end: 29 March 2019 00:00
Orbit: 406 x 411 km, 51.6° (Epoch: 19 March)

Date Brightness Start Highest point End Pass type
(mag) Time Alt. Az. Time Alt. Az. Time Alt. Az.
22 Mar -2.2 19:38:52 10° SSW 19:40:43 22° S 19:40:43 22° S visible
23 Mar -2.1 18:48:30 10° S 18:50:48 18° SE 18:52:21 13° ESE visible
23 Mar -1.9 20:23:39 10° WSW 20:25:08 24° SW 20:25:08 24° SW visible
24 Mar -3.4 19:32:44 10° SW 19:35:54 44° SSE 19:36:34 38° ESE visible
24 Mar -0.7 21:09:03 10° W 21:09:20 12° W 21:09:20 12° W visible
25 Mar -2.8 18:41:58 10° SW 18:44:55 31° SSE 18:47:52 10° E visible
25 Mar -3.3 20:17:58 10° WSW 20:20:37 54° WSW 20:20:37 54° WSW visible
26 Mar -3.9 19:26:53 10° WSW 19:30:11 69° SSE 19:31:46 28° E visible
26 Mar -1.3 21:03:26 10° W 21:04:31 19° W 21:04:31 19° W visible
27 Mar -3.5 18:35:54 10° SW 18:39:07 52° SSE 18:42:21 10° E visible
27 Mar -3.9 20:12:18 10° W 20:15:35 85° NW 20:15:35 85° NW visible
28 Mar -3.9 19:21:11 10° W 19:24:29 89° S 19:26:33 21° E visible
28 Mar -1.7 20:57:45 10° W 20:59:17 25° W 20:59:17 25° W visible
